Location: ActonStarParty
(42.4766°N, 71.4538°W)
Time: 15:09:40
(UTC-04:00)

Amateur Radio Satellites - All Passes

Search period start: 03 September 2015 14:39
Search period end: 04 September 2015 14:39
Location: ActonStarParty, 42.4766°N, 71.4538°W

Satellite Date Start Highest point End Downlink Frequencies (MHz)
Time Altitude Azimuth
HORYU 2 03 Sep 14:40:58 14:43:38 16° 64° (ENE) 14:46:27 437.375
BEESAT 2 03 Sep 14:41:05 14:45:10 76° 122° (ESE) 14:49:17 435.950
ITUPSAT 1 03 Sep 15:10:41 15:15:22 58° 287° (WNW) 15:20:02 437.325
Cosmos 2499 03 Sep 15:19:09 15:27:51 78° 80° (E) 15:35:53 435.465 / 435.565
ISS 03 Sep 15:24:35 15:27:01 19° 226° (SW) 15:29:25 145.825
AIST 2 03 Sep 15:37:30 15:41:40 59° 120° (ESE) 15:45:52 435.215
STARS 03 Sep 15:39:04 15:42:57 29° 95° (E) 15:46:51 437.465
Gurwin Techsat 1B 03 Sep 15:40:04 15:43:40 18° 271° (W) 15:47:03 435.225
ITAMSAT 1 03 Sep 15:40:22 15:44:11 20° 269° (W) 15:47:52 435.822/435.867
JAS-2 03 Sep 15:42:09 15:49:36 48° 264° (W) 15:57:07 435.910
BEESAT 03 Sep 15:42:26 15:46:32 29° 293° (WNW) 15:50:33 436.000
AO-7 03 Sep 16:03:42 16:12:03 72° 255° (WSW) 16:20:24 29.400- 29.500
BEESAT 3 03 Sep 16:04:27 16:07:04 16° 320° (NW) 16:09:35 437.485
KKS-1 03 Sep 16:04:50 16:09:22 87° 285° (WNW) 16:13:51 437.445
SWISSCUBE 03 Sep 16:09:51 16:12:43 16° 297° (WNW) 16:15:25 437.505
HORYU 2 03 Sep 16:15:26 16:19:52 55° 260° (W) 16:24:18 437.375
BEESAT 2 03 Sep 16:21:16 16:23:44 15° 321° (NW) 16:26:07 435.950
GONETS M04 03 Sep 16:34:49 16:37:00 11° 286° (WNW) 16:38:27
RS-15 03 Sep 16:36:03 16:47:03 81° 306° (NW) 16:58:32 29.354- 29.394
MOZHAYETS 4 03 Sep 16:38:56 16:43:01 33° 95° (E) 16:47:09
CUTE-I 03 Sep 16:47:13 16:50:14 16° 61° (ENE) 16:53:28 437.470
Cosmos 2499 03 Sep 17:13:50 17:20:04 22° 280° (W) 17:25:41 435.465 / 435.565
STARS 03 Sep 17:15:32 17:19:19 27° 292° (WNW) 17:23:02 437.465
AIST 2 03 Sep 17:17:33 17:20:37 19° 319° (NW) 17:23:37 435.215
O/OREOS (USA 219) 03 Sep 17:21:57 17:23:44 12° 99° (E) 17:25:46 437.305
Cubesat XI-IV 03 Sep 17:40:45 17:45:46 46° 70° (ENE) 17:50:52 437.490
AO-7 03 Sep 18:02:37 18:06:32 13° 276° (W) 18:09:47 29.400- 29.500
HO-68 03 Sep 18:05:30 18:06:28 10° 47° (NE) 18:07:51 435.675
BRITE-PL 03 Sep 18:05:43 18:07:26 12° 60° (ENE) 18:09:25 437.365/2234.400
MOZHAYETS 4 03 Sep 18:16:21 18:20:09 25° 292° (WNW) 18:23:50
AIST 1 03 Sep 18:17:33 18:21:16 27° 73° (ENE) 18:25:03
GOMX 1 03 Sep 18:20:06 18:20:45 10° 58° (ENE) 18:21:40 467.674
CUTE-I 03 Sep 18:24:27 18:29:46 75° 257° (WSW) 18:35:06 437.470
CUBESAT XI-V 03 Sep 18:40:53 18:45:27 56° 100° (E) 18:50:03 437.345
Cosmos 2491 03 Sep 18:47:38 18:55:00 30° 66° (ENE) 19:02:35 435.465 / 435.565
RS-15 03 Sep 18:51:53 19:01:35 32° 334° (NNW) 19:11:31 29.354- 29.394
O/OREOS (USA 219) 03 Sep 18:58:07 19:02:38 66° 294° (WNW) 19:07:13 437.305
YUBILEINY 03 Sep 19:00:40 19:03:20 12° 75° (ENE) 19:06:42 435.215
Cubesat XI-IV 03 Sep 19:21:51 19:26:08 24° 267° (W) 19:30:18 437.490
PRISM 03 Sep 19:23:00 19:26:16 23° 94° (E) 19:29:38 437.425
CUTE 1.7 + AOD 2 03 Sep 19:24:06 19:26:47 17° 66° (ENE) 19:29:34 437.475
CANX-2 03 Sep 19:37:41 19:41:11 25° 69° (ENE) 19:44:44 2200.000
BRITE-PL 03 Sep 19:40:48 19:45:14 79° 259° (WSW) 19:50:05 437.365/2234.400
STRAND 1 03 Sep 19:45:31 19:50:36 62° 102° (ESE) 19:55:40 437.568
HO-68 03 Sep 19:45:53 19:52:42 51° 67° (ENE) 19:59:38 435.675
DOVE 4 03 Sep 19:51:36 19:56:07 48° 72° (ENE) 20:00:57 437.250
SEEDS 03 Sep 19:53:23 19:56:54 26° 69° (ENE) 20:00:30 437.485
GOMX 1 03 Sep 19:53:25 19:58:00 82° 78° (ENE) 20:02:59 467.674
AIST 1 03 Sep 19:55:15 19:58:51 25° 270° (W) 20:02:22
COMPASS 1 03 Sep 20:09:44 20:13:26 31° 70° (ENE) 20:17:09 437.405
CINEMA 3 03 Sep 20:14:05 20:18:27 37° 70° (ENE) 20:23:01 145.822/145.860
AAUSAT CUBESAT 2 03 Sep 20:17:06 20:20:46 31° 70° (ENE) 20:24:30 437.432
Oscar 11 03 Sep 20:17:31 20:20:02 16° 65° (ENE) 20:22:44 145.826/435.025
CUBESAT XI-V 03 Sep 20:19:29 20:22:30 17° 295° (WNW) 20:25:21 437.345
Cosmos 2491 03 Sep 20:43:56 20:52:33 63° 267° (W) 21:01:08 435.465 / 435.565
YUBILEINY 03 Sep 20:49:59 20:58:38 68° 94° (E) 21:07:24 435.215
PRISM 03 Sep 20:58:08 21:01:44 29° 291° (WNW) 21:05:16 437.425
CUTE 1.7 + AOD 2 03 Sep 20:58:13 21:02:21 47° 261° (W) 21:06:30 437.475
ZACube-1 03 Sep 21:05:55 21:10:00 33° 70° (ENE) 21:14:10 437.345
FUNcube-1 03 Sep 21:09:43 21:13:51 35° 70° (ENE) 21:18:04 145.935
RS-15 03 Sep 21:10:05 21:18:52 24° 8° (N) 21:28:04 29.354- 29.394
CANX-2 03 Sep 21:13:14 21:17:01 29° 265° (W) 21:20:45 2200.000
CUBEBUG 2 03 Sep 21:19:20 21:24:00 77° 76° (ENE) 21:28:48 437.445
UWE-3 03 Sep 21:19:35 21:24:08 61° 74° (ENE) 21:28:46 435.000/436.395/437.385
HUMSAT D 03 Sep 21:24:59 21:28:10 21° 67° (ENE) 21:31:29 437.325/437.525
STRAND 1 03 Sep 21:25:55 21:29:22 18° 297° (WNW) 21:32:39 437.568
SEEDS 03 Sep 21:28:58 21:32:38 27° 265° (W) 21:36:15 437.485
DOVE 4 03 Sep 21:30:51 21:34:15 19° 271° (W) 21:37:39 437.250
HO-68 03 Sep 21:34:23 21:40:43 32° 266° (W) 21:46:59 435.675
GOMX 1 03 Sep 21:36:05 21:37:02 10° 277° (W) 21:37:39 467.674
COMPASS 1 03 Sep 21:45:44 21:49:07 23° 267° (W) 21:52:26 437.405
DX 1 03 Sep 21:50:07 21:53:29 23° 67° (ENE) 21:56:57 434.975-435.025
Oscar 11 03 Sep 21:51:36 21:55:51 52° 261° (W) 22:00:07 145.826/435.025
CINEMA 3 03 Sep 21:51:46 21:55:44 25° 268° (W) 21:59:46 145.822/145.860
DELFI C3 03 Sep 21:52:47 21:56:50 76° 258° (WSW) 22:00:53 145.870
AAUSAT CUBESAT 2 03 Sep 21:53:04 21:56:25 22° 267° (W) 21:59:40 437.432
UKube-1 03 Sep 21:57:23 22:00:50 25° 67° (ENE) 22:04:24 .
50 SAT 03 Sep 22:09:01 22:12:12 24° 69° (ENE) 22:15:28 437.505
CUBEBUG 1 03 Sep 22:16:31 22:19:15 17° 65° (ENE) 22:22:09 437.445
ESTCUBE 1 03 Sep 22:24:13 22:27:52 25° 68° (ENE) 22:31:35 437.505/2401.250
AISAT 03 Sep 22:24:51 22:28:50 35° 70° (ENE) 22:32:53 437.250
Cosmos 2504 03 Sep 22:34:10 22:41:46 45° 88° (E) 22:49:50 435.465 / 435.565
BEESAT 3 03 Sep 22:42:29 22:46:26 49° 52° (NE) 22:50:18 437.485
ZACube-1 03 Sep 22:42:34 22:46:23 25° 267° (W) 22:50:11 437.345
AUBIESAT-1 03 Sep 22:43:53 22:44:31 10° 92° (E) 22:45:21 437.475
UNISAT 6 03 Sep 22:44:10 22:48:11 30° 95° (E) 22:52:07 437.425
Cosmos 2491 03 Sep 22:45:50 22:47:49 11° 286° (WNW) 22:49:02 435.465 / 435.565
FUNcube-1 03 Sep 22:46:32 22:50:16 24° 268° (W) 22:53:55 145.935
YUBILEINY 03 Sep 22:48:54 22:56:19 28° 295° (WNW) 23:03:31 435.215
M-CUBED/EXP-1 PRIME 03 Sep 22:51:03 22:53:26 16° 95° (E) 22:55:50 437.505
VELOX 1 03 Sep 22:51:39 22:55:59 64° 74° (ENE) 23:00:24 145.980
UWE-3 03 Sep 22:58:30 23:01:08 14° 272° (W) 23:03:34 435.000/436.395/437.385
BEESAT 2 03 Sep 22:59:31 23:03:32 55° 53° (NE) 23:07:28 435.950
HUMSAT D 03 Sep 22:59:39 23:03:41 37° 263° (W) 23:07:43 437.325/437.525
CUBEBUG 2 03 Sep 22:59:42 23:01:22 11° 274° (W) 23:02:44 437.445
BUGSAT 1 03 Sep 23:08:16 23:09:23 11° 88° (E) 23:10:45 437.445
DANDE 03 Sep 23:08:32 23:10:42 15° 81° (E) 23:13:21 436.750
TIGRISAT 03 Sep 23:11:03 23:15:32 57° 100° (E) 23:19:54 435.000
DUCHIFAT 1 03 Sep 23:13:40 23:16:53 21° 93° (E) 23:20:11 145.980
POLYITAN 1 03 Sep 23:14:55 23:18:20 23° 93° (E) 23:21:48 437.675
POPSAT HIP 1 03 Sep 23:16:08 23:19:34 23° 94° (E) 23:23:02 437.405
RS-15 03 Sep 23:24:12 23:35:19 46° 40° (NE) 23:46:57 29.354- 29.394
DX 1 03 Sep 23:25:37 23:29:35 33° 263° (W) 23:33:31 434.975-435.025
ANTELSAT 03 Sep 23:29:32 23:34:07 88° 284° (WNW) 23:38:33 437.575/2403.000
NANOSAT C BR1 03 Sep 23:31:57 23:35:51 34° 96° (E) 23:39:46 145.865
UKube-1 03 Sep 23:33:00 23:36:51 31° 264° (W) 23:40:42 .
QB50P2 03 Sep 23:33:35 23:37:35 37° 97° (E) 23:41:35 145.880/145.840
SPROUT 03 Sep 23:33:38 23:37:29 34° 70° (ENE) 23:41:25 437.525
50 SAT 03 Sep 23:43:17 23:46:39 26° 265° (W) 23:49:58 437.505
QB50P1 03 Sep 23:46:53 23:51:05 51° 99° (E) 23:55:16 145.935-145.965
CUBEBUG 1 03 Sep 23:51:07 23:55:17 47° 261° (W) 23:59:30 437.445
CUSAT 1 03 Sep 23:55:49 00:00:01 85° 96° (E) 00:05:43 437.405
AIST 2 03 Sep 23:58:39 00:02:42 47° 52° (NE) 00:06:42 435.215
ESTCUBE 1 04 Sep 00:00:36 00:04:38 32° 264° (W) 00:08:38 437.505/2401.250
AISAT 04 Sep 00:01:59 00:05:30 22° 267° (W) 00:08:57 437.250
PCSat 04 Sep 00:07:36 00:10:58 17° 106° (ESE) 00:14:32 145.827
SO-50 04 Sep 00:13:37 00:18:14 51° 118° (ESE) 00:23:01 436.795
AUBIESAT-1 04 Sep 00:16:01 00:19:47 53° 292° (WNW) 00:23:15 437.475
UNISAT 6 04 Sep 00:21:01 00:24:52 27° 292° (WNW) 00:28:33 437.425
BEESAT 3 04 Sep 00:21:30 00:23:59 16° 249° (WSW) 00:26:19 437.485
TISAT 1 04 Sep 00:23:47 00:27:58 69° 74° (ENE) 00:32:12 437.305
M-CUBED/EXP-1 PRIME 04 Sep 00:24:53 00:28:29 35° 295° (WNW) 00:31:48 437.505
Cosmos 2504 04 Sep 00:26:19 00:34:05 42° 289° (WNW) 00:42:06 435.465 / 435.565
VELOX 1 04 Sep 00:31:11 00:33:03 12° 272° (W) 00:34:42 145.980
BEESAT 2 04 Sep 00:38:56 00:41:09 14° 249° (WSW) 00:43:10 435.950
BUGSAT 1 04 Sep 00:41:07 00:45:22 67° 285° (WNW) 00:49:35 437.445
ITUPSAT 1 04 Sep 00:41:42 00:45:07 21° 65° (ENE) 00:48:41 437.325
DUCHIFAT 1 04 Sep 00:48:53 00:52:47 35° 290° (WNW) 00:56:40 145.980
TIGRISAT 04 Sep 00:49:03 00:51:50 16° 296° (WNW) 00:54:25 435.000
DANDE 04 Sep 00:49:22 00:53:03 43° 289° (WNW) 00:57:56 436.750
POLYITAN 1 04 Sep 00:50:25 00:54:17 32° 290° (WNW) 00:58:04 437.675
POPSAT HIP 1 04 Sep 00:51:37 00:55:28 32° 290° (WNW) 00:59:15 437.405
Oscar 19 04 Sep 01:06:17 01:09:24 16° 89° (E) 01:12:44 437.125/150
NANOSAT C BR1 04 Sep 01:08:08 01:11:31 22° 293° (WNW) 01:14:47 145.865
QB50P2 04 Sep 01:10:00 01:13:15 21° 293° (WNW) 01:16:23 145.880/145.840
SPROUT 04 Sep 01:10:16 01:13:39 22° 267° (W) 01:16:58 437.525
BEESAT 04 Sep 01:11:32 01:15:56 39° 70° (ENE) 01:20:23 436.000
QB50P1 04 Sep 01:23:54 01:26:34 16° 295° (WNW) 01:29:04 145.935-145.965
KKS-1 04 Sep 01:31:08 01:31:46 10° 61° (ENE) 01:32:40 437.445
VERMONT LUNAR 04 Sep 01:33:04 01:34:27 13° 151° (SSE) 01:35:52 437.305
RS-15 04 Sep 01:36:49 01:48:31 65° 244° (WSW) 02:00:29 29.354- 29.394
SWISSCUBE 04 Sep 01:37:36 01:42:22 79° 75° (ENE) 01:47:09 437.505
AIST 2 04 Sep 01:38:06 01:40:56 17° 248° (WSW) 01:43:37 435.215
GONETS M04 04 Sep 01:39:20 01:46:38 33° 85° (E) 01:54:10
CUSAT 1 04 Sep 01:41:59 01:44:01 12° 307° (NW) 01:45:57 437.405
PCSat 04 Sep 01:48:30 01:53:53 68° 302° (WNW) 01:59:19 145.827
SO-50 04 Sep 01:54:59 01:59:04 26° 318° (NW) 02:03:10 436.795
TISAT 1 04 Sep 02:03:29 02:04:17 10° 273° (W) 02:04:49 437.305
Cosmos 2499 04 Sep 02:09:13 02:11:30 12° 74° (ENE) 02:14:32 435.465 / 435.565
ITAMSAT 1 04 Sep 02:12:36 02:15:51 17° 90° (E) 02:19:18 435.822/435.867
Gurwin Techsat 1B 04 Sep 02:14:12 02:18:17 23° 92° (E) 02:22:29 435.225
ITUPSAT 1 04 Sep 02:18:08 02:22:44 46° 261° (W) 02:27:20 437.325
STARS 04 Sep 02:36:34 02:40:21 29° 68° (ENE) 02:44:12 437.465
Oscar 19 04 Sep 02:44:07 02:49:17 63° 287° (WNW) 02:54:23 437.125/150
BEESAT 04 Sep 02:50:09 02:53:56 23° 267° (W) 02:57:38 436.000
JAS-2 04 Sep 02:52:43 02:58:24 28° 90° (E) 03:03:38 435.910
KKS-1 04 Sep 03:03:18 03:07:46 89° 244° (WSW) 03:12:17 437.445
VERMONT LUNAR 04 Sep 03:07:34 03:10:24 40° 166° (SSE) 03:13:14 437.305
SWISSCUBE 04 Sep 03:19:22 03:20:54 11° 273° (W) 03:22:07 437.505
O/OREOS (USA 219) 04 Sep 03:28:36 03:32:35 29° 57° (ENE) 03:36:36 437.305
GONETS M04 04 Sep 03:34:37 03:43:07 56° 284° (WNW) 03:51:40
PCSat 04 Sep 03:35:31 03:38:26 14° 324° (NW) 03:41:10 145.827
MOZHAYETS 4 04 Sep 03:41:25 03:45:33 34° 70° (ENE) 03:49:43
ITAMSAT 1 04 Sep 03:50:43 03:55:50 60° 287° (WNW) 04:00:56 435.822/435.867
RS-15 04 Sep 03:53:22 03:59:05 14° 262° (W) 04:03:42 29.354- 29.394
Gurwin Techsat 1B 04 Sep 03:53:27 03:58:33 47° 290° (WNW) 04:03:36 435.225
Cosmos 2499 04 Sep 03:54:40 04:03:03 64° 92° (E) 04:11:49 435.465 / 435.565
AO-7 04 Sep 04:04:52 04:12:23 38° 97° (E) 04:19:59 29.400- 29.500
HORYU 2 04 Sep 04:06:22 04:10:05 26° 95° (E) 04:13:50 437.375
STARS 04 Sep 04:12:57 04:16:46 27° 265° (W) 04:20:32 437.465
JAS-2 04 Sep 04:37:13 04:43:52 49° 292° (WNW) 04:49:42 435.910
VERMONT LUNAR 04 Sep 04:43:41 04:46:38 58° 183° (S) 04:49:34 437.305
PHONESAT 2.4 04 Sep 04:58:00 05:01:08 34° 162° (SSE) 05:04:17 2401.200-2431.200
O/OREOS (USA 219) 04 Sep 05:07:57 05:12:01 30° 255° (WSW) 05:16:00 437.305
MOZHAYETS 4 04 Sep 05:19:01 05:22:50 25° 267° (W) 05:26:34
STRAND 1 04 Sep 05:26:26 05:28:33 13° 60° (ENE) 05:30:55 437.568
GONETS M04 04 Sep 05:40:19 05:42:37 11° 310° (NW) 05:44:15
HORYU 2 04 Sep 05:42:47 05:46:43 30° 291° (WNW) 05:50:34 437.375
CUBESAT XI-V 04 Sep 05:44:45 05:49:14 57° 74° (ENE) 05:53:46 437.345
Cosmos 2499 04 Sep 05:49:23 05:56:55 31° 294° (WNW) 06:04:28 435.465 / 435.565
AO-7 04 Sep 05:57:29 06:05:26 51° 296° (WNW) 06:13:17 29.400- 29.500
Cubesat XI-IV 04 Sep 05:58:22 06:01:40 17° 89° (E) 06:05:11 437.490
PRISM 04 Sep 06:14:01 06:16:56 20° 67° (ENE) 06:19:57 437.425
VERMONT LUNAR 04 Sep 06:20:09 06:22:48 29° 199° (SSW) 06:25:25 437.305
ISS 04 Sep 06:30:02 06:30:22 10° 130° (SE) 06:30:50 145.825
PHONESAT 2.4 04 Sep 06:35:24 06:38:47 62° 179° (S) 06:42:10 2401.200-2431.200
CUTE-I 04 Sep 06:41:00 06:46:00 41° 98° (E) 06:51:03 437.470
AIST 1 04 Sep 06:48:59 06:51:26 16° 87° (E) 06:54:04
YUBILEINY 04 Sep 06:59:42 07:07:31 35° 68° (ENE) 07:15:25 435.215
STRAND 1 04 Sep 07:02:01 07:07:07 87° 256° (WSW) 07:12:15 437.568
SO-50 04 Sep 07:05:39 07:07:40 12° 30° (NNE) 07:09:50 436.795
CUBESAT XI-V 04 Sep 07:24:30 07:27:07 14° 271° (W) 07:29:32 437.345
Cubesat XI-IV 04 Sep 07:37:01 07:42:17 63° 288° (WNW) 07:47:33 437.490
BRITE-PL 04 Sep 07:44:16 07:49:25 37° 95° (E) 07:54:41 437.365/2234.400
PRISM 04 Sep 07:48:23 07:52:09 35° 262° (W) 07:55:55 437.425
Cosmos 2491 04 Sep 07:50:17 07:57:36 33° 85° (E) 08:05:08 435.465 / 435.565
DOVE 4 04 Sep 07:51:17 07:54:12 15° 87° (E) 07:57:20 437.250
AO-7 04 Sep 07:53:16 07:56:27 12° 317° (NW) 07:59:12 29.400- 29.500
GOMX 1 04 Sep 07:54:40 07:59:17 28° 92° (E) 08:03:57 467.674
ISS 04 Sep 08:03:04 08:06:20 86° 146° (SE) 08:09:36 145.825
PHONESAT 2.4 04 Sep 08:13:14 08:16:29 42° 195° (SSW) 08:19:43 2401.200-2431.200
CUTE-I 04 Sep 08:21:28 08:25:55 27° 295° (WNW) 08:30:17 437.470
Cosmos 2504 04 Sep 08:21:39 08:25:56 15° 55° (NE) 08:30:35 435.465 / 435.565
AIST 1 04 Sep 08:24:42 08:28:46 42° 283° (WNW) 08:32:50
CUTE 1.7 + AOD 2 04 Sep 08:42:58 08:46:34 27° 95° (E) 08:50:10 437.475
SO-50 04 Sep 08:44:30 08:49:22 55° 51° (NE) 08:54:09 436.795
CUSAT 1 04 Sep 08:48:47 08:53:36 18° 58° (ENE) 08:58:59 437.405
PCSat 04 Sep 08:53:12 08:57:10 20° 42° (NE) 09:01:13 145.827
ANTELSAT 04 Sep 08:56:00 08:57:03 11° 61° (ENE) 08:58:21 437.575/2403.000
YUBILEINY 04 Sep 08:56:14 09:04:48 55° 269° (W) 09:13:13 435.215
CANX-2 04 Sep 08:57:16 09:01:19 43° 98° (E) 09:05:21 2200.000
HO-68 04 Sep 09:00:07 09:07:04 49° 99° (E) 09:14:00 435.675
UWE-3 04 Sep 09:11:15 09:12:49 12° 86° (E) 09:14:37 435.000/436.395/437.385
CUBEBUG 2 04 Sep 09:11:20 09:14:08 16° 89° (E) 09:17:03 437.445
SEEDS 04 Sep 09:11:53 09:15:54 45° 98° (E) 09:19:55 437.485
BRITE-PL 04 Sep 09:22:51 09:27:51 34° 291° (WNW) 09:32:51 437.365/2234.400
DOVE 4 04 Sep 09:27:13 09:32:33 71° 285° (WNW) 09:37:45 437.250
COMPASS 1 04 Sep 09:27:21 09:31:26 52° 100° (E) 09:35:28 437.405
AUBIESAT-1 04 Sep 09:29:18 09:32:57 23° 62° (ENE) 09:36:35 437.475
GOMX 1 04 Sep 09:32:21 09:37:31 42° 289° (WNW) 09:42:38 467.674
DELFI C3 04 Sep 09:32:37 09:34:28 13° 89° (E) 09:36:31 145.870
AAUSAT CUBESAT 2 04 Sep 09:34:09 09:38:12 52° 99° (E) 09:42:13 437.432
M-CUBED/EXP-1 PRIME 04 Sep 09:37:47 09:42:00 32° 64° (ENE) 09:46:09 437.505
Oscar 11 04 Sep 09:38:36 09:42:12 26° 94° (E) 09:45:50 145.826/435.025
ISS 04 Sep 09:40:25 09:43:05 22° 344° (NNW) 09:45:44 145.825
DANDE 04 Sep 09:43:17 09:49:49 29° 67° (ENE) 09:57:05 436.750
UNISAT 6 04 Sep 09:43:26 09:47:32 31° 69° (ENE) 09:51:42 437.425
CINEMA 3 04 Sep 09:45:01 09:50:03 81° 104° (ESE) 09:54:52 145.822/145.860
Cosmos 2491 04 Sep 09:45:36 09:54:07 55° 285° (WNW) 10:02:38 435.465 / 435.565
PHONESAT 2.4 04 Sep 09:52:01 09:53:52 14° 210° (SSW) 09:55:40 2401.200-2431.200
DUCHIFAT 1 04 Sep 10:07:02 10:09:53 18° 66° (ENE) 10:12:50 145.980
POLYITAN 1 04 Sep 10:08:49 10:11:55 20° 66° (ENE) 10:15:08 437.675
TIGRISAT 04 Sep 10:09:49 10:14:23 55° 73° (ENE) 10:19:02 435.000
POPSAT HIP 1 04 Sep 10:09:52 10:12:55 20° 67° (ENE) 10:16:07 437.405
Cosmos 2504 04 Sep 10:11:38 10:20:07 72° 79° (E) 10:28:01 435.465 / 435.565
CUTE 1.7 + AOD 2 04 Sep 10:18:51 10:22:25 26° 291° (WNW) 10:25:53 437.475
NANOSAT C BR1 04 Sep 10:25:08 10:28:44 28° 69° (ENE) 10:32:25 145.865
SO-50 04 Sep 10:25:57 10:29:33 20° 249° (WSW) 10:32:57 436.795
QB50P2 04 Sep 10:27:06 10:30:50 31° 70° (ENE) 10:34:39 145.880/145.840
ANTELSAT 04 Sep 10:28:26 10:33:09 87° 71° (ENE) 10:37:54 437.575/2403.000
CUSAT 1 04 Sep 10:29:32 10:37:32 74° 78° (ENE) 10:45:43 437.405
ZACube-1 04 Sep 10:29:44 10:34:11 62° 100° (E) 10:38:30 437.345
FUNcube-1 04 Sep 10:33:18 10:37:45 66° 100° (E) 10:42:04 145.935
CANX-2 04 Sep 10:34:07 10:36:56 17° 294° (WNW) 10:39:37 2200.000
PCSat 04 Sep 10:35:47 10:41:14 75° 241° (WSW) 10:46:37 145.827
QB50P1 04 Sep 10:40:02 10:44:01 41° 72° (ENE) 10:48:05 145.935-145.965
HUMSAT D 04 Sep 10:42:56 10:46:44 32° 96° (E) 10:50:30 437.325/437.525
VELOX 1 04 Sep 10:43:34 10:45:02 12° 88° (E) 10:46:46 145.980
UWE-3 04 Sep 10:45:23 10:49:57 68° 285° (WNW) 10:54:21 435.000/436.395/437.385
CUBEBUG 2 04 Sep 10:46:40 10:51:13 52° 287° (WNW) 10:55:35 437.445
HO-68 04 Sep 10:48:14 10:54:37 35° 298° (WNW) 11:00:52 435.675
SEEDS 04 Sep 10:48:40 10:51:22 17° 294° (WNW) 10:53:56 437.485
AUBIESAT-1 04 Sep 11:02:53 11:07:24 43° 257° (WSW) 11:11:48 437.475
COMPASS 1 04 Sep 11:04:22 11:06:42 14° 295° (WNW) 11:08:50 437.405
DELFI C3 04 Sep 11:06:01 11:09:52 47° 287° (WNW) 11:13:42 145.870
DOVE 4 04 Sep 11:08:17 11:09:25 10° 302° (WNW) 11:10:14 437.250
AAUSAT CUBESAT 2 04 Sep 11:11:07 11:13:24 14° 295° (WNW) 11:15:31 437.432
M-CUBED/EXP-1 PRIME 04 Sep 11:12:27 11:16:43 30° 260° (W) 11:20:50 437.505
DX 1 04 Sep 11:12:52 11:16:57 37° 98° (E) 11:21:03 434.975-435.025
Oscar 11 04 Sep 11:14:37 11:18:22 28° 291° (WNW) 11:22:01 145.826/435.025
50 SAT 04 Sep 11:17:09 11:20:35 30° 96° (E) 11:24:01 437.505
ISS 04 Sep 11:18:08 11:20:20 16° 4° (N) 11:22:31 145.825
UKube-1 04 Sep 11:19:14 11:23:19 39° 98° (E) 11:27:24 .
UNISAT 6 04 Sep 11:20:11 11:24:17 28° 266° (W) 11:28:21 437.425
CINEMA 3 04 Sep 11:24:05 11:26:33 13° 299° (WNW) 11:28:46 145.822/145.860
DANDE 04 Sep 11:25:40 11:33:31 70° 264° (W) 11:41:59 436.750
BUGSAT 1 04 Sep 11:31:23 11:35:28 89° 256° (WSW) 11:39:39 437.445
CUBEBUG 1 04 Sep 11:39:17 11:43:09 29° 96° (E) 11:47:04 437.445
DUCHIFAT 1 04 Sep 11:41:20 11:45:22 42° 262° (W) 11:49:27 145.980
POLYITAN 1 04 Sep 11:43:34 11:47:34 38° 262° (W) 11:51:36 437.675
POPSAT HIP 1 04 Sep 11:44:34 11:48:34 38° 263° (W) 11:52:34 437.405
TIGRISAT 04 Sep 11:48:30 11:51:31 16° 271° (W) 11:54:22 435.000
GONETS M04 04 Sep 11:48:44 11:53:47 17° 56° (ENE) 11:59:20
AISAT 04 Sep 11:50:37 11:55:05 65° 101° (ESE) 11:59:33 437.250
Cosmos 2491 04 Sep 11:51:28 11:53:37 11° 310° (NW) 11:55:07 435.465 / 435.565
ESTCUBE 1 04 Sep 11:51:56 11:56:19 49° 99° (E) 12:00:42 437.505/2401.250
NANOSAT C BR1 04 Sep 12:00:56 12:04:32 26° 266° (W) 12:08:07 145.865
QB50P2 04 Sep 12:03:16 12:06:46 24° 267° (W) 12:10:13 145.880/145.840
Cosmos 2504 04 Sep 12:05:07 12:11:30 24° 279° (W) 12:17:19 435.465 / 435.565
ZACube-1 04 Sep 12:07:38 12:10:02 14° 297° (WNW) 12:12:14 437.345
TISAT 1 04 Sep 12:10:25 12:11:00 10° 87° (E) 12:11:51 437.305
FUNcube-1 04 Sep 12:11:21 12:13:33 13° 297° (WNW) 12:15:32 145.935
CUSAT 1 04 Sep 12:13:07 12:19:33 26° 274° (W) 12:25:47 437.405
QB50P1 04 Sep 12:17:08 12:20:07 18° 269° (W) 12:22:57 145.935-145.965
VELOX 1 04 Sep 12:17:40 12:22:08 68° 286° (WNW) 12:26:34 145.980
HUMSAT D 04 Sep 12:18:59 12:22:19 22° 292° (WNW) 12:25:30 437.325/437.525
Oscar 19 04 Sep 12:23:24 12:27:37 26° 66° (ENE) 12:31:56 437.125/150
DX 1 04 Sep 12:49:36 12:52:59 21° 294° (WNW) 12:56:16 434.975-435.025
50 SAT 04 Sep 12:52:05 12:54:56 20° 292° (WNW) 12:57:40 437.505
ISS 04 Sep 12:54:27 12:57:27 33° 24° (NNE) 13:00:27 145.825
SPROUT 04 Sep 12:54:57 12:59:16 61° 100° (E) 13:03:33 437.525
UKube-1 04 Sep 12:55:58 12:59:12 20° 294° (WNW) 13:02:21 .
JAS-2 04 Sep 13:05:32 13:10:30 19° 57° (ENE) 13:15:45 435.910
DANDE 04 Sep 13:11:30 13:15:47 15° 278° (W) 13:19:37 436.750
CUBEBUG 1 04 Sep 13:15:41 13:19:26 27° 292° (WNW) 13:23:08 437.445
AO-7 04 Sep 13:17:41 13:21:07 14° 44° (NE) 13:24:57 29.400- 29.500
AISAT 04 Sep 13:28:47 13:31:11 14° 297° (WNW) 13:33:24 437.250
ESTCUBE 1 04 Sep 13:29:48 13:32:51 18° 295° (WNW) 13:35:47 437.505/2401.250
ITAMSAT 1 04 Sep 13:30:54 13:35:14 29° 66° (ENE) 13:39:40 435.822/435.867
Gurwin Techsat 1B 04 Sep 13:35:41 13:40:32 38° 69° (ENE) 13:45:28 435.225
SWISSCUBE 04 Sep 13:38:12 13:41:30 19° 91° (E) 13:44:56 437.505
TISAT 1 04 Sep 13:43:03 13:47:19 70° 286° (WNW) 13:51:34 437.305
GONETS M04 04 Sep 13:43:37 13:52:29 78° 81° (E) 14:01:20
Cosmos 2499 04 Sep 13:46:30 13:53:02 24° 62° (ENE) 13:59:32 435.465 / 435.565
RS-15 04 Sep 13:53:42 14:00:15 19° 100° (E) 14:07:38 29.354- 29.394
Oscar 19 04 Sep 14:01:55 14:06:47 40° 262° (W) 14:11:41 437.125/150
BEESAT 3 04 Sep 14:12:31 14:16:34 76° 122° (ESE) 14:20:40 437.485
ITUPSAT 1 04 Sep 14:17:53 14:22:25 42° 98° (E) 14:26:56 437.325
BEESAT 2 04 Sep 14:30:40 14:34:46 88° 123° (ESE) 14:38:54 435.950
ISS 04 Sep 14:30:51 14:33:54 37° 221° (SW) 14:36:54 145.825
SPROUT 04 Sep 14:32:35 14:34:53 14° 296° (WNW) 14:36:59 437.525
